BAW252 MWCR-MYNN

Flight info

Callsign BAW252
Flight time 1h 4m
Altitude 39000
Route DYNAH G437 JEFRY DCT ZQA
Aircraft B772/H-SDE2E3FGHIJ5LORVWXY/LB1D1

Departure

Time 2026-04-30 19:10
Airport Owen Roberts International Airport (MWCR)

Arrival

Time 2026-04-30 20:15
Airport Lynden Pindling International Airport (MYNN)
Time Latitude Longitude Altitude Speed Heading
2026-04-30 18:50 19.29521 -81.35728 20 ft 0 kts 346°
2026-04-30 19:04 19.29510 -81.35726 20 ft 4 kts 346°
2026-04-30 19:05 19.29458 -81.35720 23 ft 4 kts 14°
2026-04-30 19:05 19.29433 -81.35729 23 ft 0 kts 21°
2026-04-30 19:07 19.29459 -81.35640 19 ft 15 kts 94°
2026-04-30 19:07 19.29377 -81.35582 18 ft 15 kts 179°
2026-04-30 19:08 19.29257 -81.35894 19 ft 35 kts 258°
2026-04-30 19:08 19.29147 -81.36363 21 ft 31 kts 254°
2026-04-30 19:08 19.29090 -81.36564 19 ft 21 kts 252°
2026-04-30 19:09 19.29053 -81.36743 22 ft 6 kts 145°
2026-04-30 19:09 19.29057 -81.36697 21 ft 8 kts 74°
2026-04-30 19:09 19.29116 -81.36449 22 ft 77 kts 77°
2026-04-30 19:10 19.29640 -81.34403 826 ft 158 kts 73°
2026-04-30 19:10 19.31134 -81.32866 2714 ft 165 kts 36°
2026-04-30 19:11 19.32199 -81.32097 3180 ft 203 kts 37°
2026-04-30 19:11 19.34924 -81.30124 4189 ft 263 kts 35°
2026-04-30 19:11 19.36463 -81.29027 5214 ft 270 kts 36°
2026-04-30 19:12 19.38027 -81.27917 6234 ft 277 kts 34°
2026-04-30 19:12 19.39643 -81.26775 7236 ft 281 kts 34°
2026-04-30 19:12 19.41282 -81.25620 8256 ft 284 kts 34°
2026-04-30 19:13 19.44632 -81.23260 10265 ft 293 kts 33°
2026-04-30 19:13 19.48285 -81.20691 11043 ft 345 kts 33°
2026-04-30 19:13 19.50379 -81.19219 11328 ft 372 kts 33°
2026-04-30 19:14 19.52544 -81.17695 12107 ft 382 kts 33°
2026-04-30 19:14 19.54772 -81.16126 13126 ft 384 kts 33°
2026-04-30 19:14 19.57018 -81.14544 13993 ft 390 kts 33°
2026-04-30 19:14 19.59290 -81.12943 14769 ft 395 kts 33°
2026-04-30 19:15 19.61594 -81.11319 15548 ft 398 kts 33°
2026-04-30 19:15 19.66247 -81.08038 16989 ft 408 kts 33°
2026-04-30 19:15 19.68633 -81.06355 17711 ft 413 kts 33°
2026-04-30 19:16 19.71046 -81.04652 18383 ft 417 kts 33°
2026-04-30 19:16 19.73448 -81.02957 18984 ft 421 kts 33°
2026-04-30 19:16 19.78376 -80.99476 20194 ft 427 kts 33°
2026-04-30 19:17 19.80833 -80.97739 20768 ft 431 kts 33°
2026-04-30 19:17 19.85867 -80.94180 21924 ft 437 kts 33°
2026-04-30 19:17 19.88410 -80.92380 22493 ft 441 kts 33°
2026-04-30 19:18 19.92692 -80.89349 23370 ft 447 kts 32°
2026-04-30 19:18 19.96149 -80.86901 23958 ft 452 kts 32°
2026-04-30 19:18 19.98776 -80.85039 24380 ft 456 kts 32°
2026-04-30 19:19 20.01427 -80.83160 24822 ft 459 kts 32°
2026-04-30 19:19 20.04102 -80.81262 25234 ft 462 kts 32°
2026-04-30 19:19 20.09496 -80.77434 26063 ft 469 kts 32°
2026-04-30 19:20 20.12231 -80.75492 26482 ft 473 kts 32°
2026-04-30 19:20 20.14942 -80.73567 26889 ft 476 kts 31°
2026-04-30 19:20 20.20498 -80.69616 27676 ft 483 kts 31°
2026-04-30 19:21 20.23306 -80.67619 28077 ft 486 kts 31°
2026-04-30 19:21 20.28933 -80.63613 28816 ft 492 kts 31°
2026-04-30 19:22 20.34659 -80.59534 29484 ft 497 kts 31°
2026-04-30 19:22 20.43338 -80.53342 30332 ft 504 kts 31°
2026-04-30 19:23 20.52133 -80.47058 31014 ft 510 kts 31°
2026-04-30 19:24 20.58044 -80.42830 31505 ft 511 kts 31°
2026-04-30 19:24 20.61008 -80.40708 31738 ft 512 kts 31°
2026-04-30 19:24 20.66931 -80.36466 32228 ft 512 kts 31°
2026-04-30 19:25 20.75765 -80.30130 33126 ft 509 kts 31°
2026-04-30 19:26 20.81646 -80.25908 33709 ft 508 kts 31°
2026-04-30 19:26 20.87482 -80.21714 34351 ft 505 kts 32°
2026-04-30 19:26 20.90393 -80.19621 34741 ft 502 kts 32°
2026-04-30 19:27 20.96161 -80.15470 35275 ft 502 kts 32°
2026-04-30 19:27 21.02002 -80.11265 35609 ft 506 kts 32°
2026-04-30 19:28 21.03941 -80.09867 35821 ft 505 kts 32°
2026-04-30 19:28 21.10690 -80.04997 36592 ft 500 kts 32°
2026-04-30 19:29 21.15493 -80.01530 37077 ft 499 kts 32°
2026-04-30 19:29 21.18374 -79.99449 37353 ft 498 kts 32°
2026-04-30 19:30 21.26960 -79.93240 38191 ft 496 kts 31°
2026-04-30 19:30 21.32660 -79.89114 38704 ft 494 kts 31°
2026-04-30 19:31 21.38356 -79.84987 38868 ft 498 kts 31°
2026-04-30 19:31 21.47001 -79.78715 38935 ft 499 kts 31°
2026-04-30 19:32 21.52726 -79.74557 38946 ft 499 kts 31°
2026-04-30 19:32 21.58483 -79.70370 38938 ft 498 kts 31°
2026-04-30 19:33 21.64224 -79.66191 38938 ft 498 kts 31°
2026-04-30 19:33 21.69860 -79.62085 38938 ft 497 kts 31°
2026-04-30 19:34 21.75598 -79.57900 38932 ft 497 kts 31°
2026-04-30 19:35 21.84165 -79.51646 38938 ft 495 kts 32°
2026-04-30 19:35 21.89841 -79.47496 38915 ft 493 kts 32°
2026-04-30 19:36 21.95512 -79.43346 38932 ft 491 kts 32°
2026-04-30 19:36 22.04007 -79.37123 38911 ft 491 kts 32°
2026-04-30 19:37 22.09634 -79.32996 38915 ft 492 kts 32°
2026-04-30 19:37 22.15254 -79.28868 38916 ft 481 kts 32°
2026-04-30 19:38 22.20742 -79.24833 38924 ft 478 kts 32°
2026-04-30 19:38 22.26251 -79.20781 38929 ft 478 kts 32°
2026-04-30 19:39 22.31727 -79.16750 38928 ft 478 kts 32°
2026-04-30 19:39 22.37246 -79.12682 38934 ft 479 kts 32°
2026-04-30 19:40 22.42732 -79.08633 38940 ft 479 kts 32°
2026-04-30 19:40 22.48235 -79.04569 38932 ft 478 kts 32°
2026-04-30 19:41 22.53692 -79.00534 38937 ft 477 kts 32°
2026-04-30 19:41 22.59168 -78.96483 38934 ft 476 kts 32°
2026-04-30 19:42 22.64641 -78.92428 38937 ft 476 kts 32°
2026-04-30 19:42 22.70105 -78.88377 38937 ft 475 kts 32°
2026-04-30 19:43 22.75564 -78.84325 38949 ft 476 kts 32°
2026-04-30 19:44 22.83734 -78.78254 38950 ft 476 kts 32°
2026-04-30 19:44 22.89213 -78.74178 38951 ft 476 kts 32°
2026-04-30 19:45 22.94685 -78.70102 38948 ft 477 kts 32°
2026-04-30 19:45 23.00130 -78.66043 38946 ft 478 kts 32°
2026-04-30 19:46 23.05638 -78.61932 38955 ft 480 kts 32°
2026-04-30 19:46 23.11126 -78.57834 38956 ft 482 kts 32°
2026-04-30 19:47 23.16669 -78.53689 38957 ft 483 kts 32°
2026-04-30 19:47 23.22180 -78.49563 38955 ft 484 kts 32°
2026-04-30 19:48 23.27741 -78.45396 38956 ft 484 kts 32°
2026-04-30 19:48 23.33300 -78.41226 38966 ft 484 kts 32°
2026-04-30 19:49 23.38798 -78.37097 38954 ft 483 kts 32°
2026-04-30 19:49 23.47091 -78.30862 38953 ft 481 kts 32°
2026-04-30 19:50 23.52595 -78.26718 38957 ft 480 kts 32°
2026-04-30 19:50 23.58045 -78.22611 38958 ft 479 kts 32°
2026-04-30 19:51 23.63514 -78.18485 38954 ft 470 kts 32°
2026-04-30 19:51 23.66179 -78.16471 38501 ft 461 kts 32°
2026-04-30 19:51 23.68800 -78.14489 37742 ft 457 kts 32°
2026-04-30 19:52 23.71416 -78.12513 36916 ft 456 kts 32°
2026-04-30 19:52 23.74010 -78.10552 36022 ft 458 kts 32°
2026-04-30 19:52 23.76635 -78.08568 35156 ft 460 kts 32°
2026-04-30 19:52 23.79279 -78.06567 34272 ft 462 kts 31°
2026-04-30 19:53 23.81933 -78.04559 33281 ft 465 kts 31°
2026-04-30 19:53 23.84609 -78.02532 32294 ft 467 kts 31°
2026-04-30 19:53 23.87253 -78.00527 31347 ft 469 kts 32°
2026-04-30 19:53 23.89946 -77.98484 30415 ft 470 kts 32°
2026-04-30 19:54 23.92653 -77.96434 29398 ft 472 kts 31°
2026-04-30 19:54 23.95410 -77.94565 28359 ft 469 kts 26°
2026-04-30 19:54 23.98341 -77.93003 27343 ft 467 kts 21°
2026-04-30 19:54 24.01340 -77.91647 26349 ft 466 kts 20°
2026-04-30 19:55 24.04337 -77.90303 25454 ft 465 kts 20°
2026-04-30 19:55 24.07331 -77.88951 24691 ft 461 kts 21°
2026-04-30 19:55 24.10281 -77.87606 23980 ft 457 kts 21°
2026-04-30 19:55 24.13182 -77.86273 23202 ft 453 kts 21°
2026-04-30 19:56 24.16087 -77.84931 22435 ft 449 kts 21°
2026-04-30 19:56 24.18946 -77.83607 21752 ft 442 kts 21°
2026-04-30 19:56 24.21765 -77.82300 21090 ft 436 kts 21°
2026-04-30 19:56 24.24553 -77.81008 20446 ft 431 kts 21°
2026-04-30 19:57 24.27276 -77.79746 19808 ft 427 kts 20°
2026-04-30 19:57 24.30012 -77.78478 19179 ft 422 kts 20°
2026-04-30 19:57 24.32707 -77.77229 18483 ft 420 kts 20°
2026-04-30 19:57 24.35371 -77.75994 17688 ft 419 kts 20°
2026-04-30 19:58 24.38043 -77.74754 16998 ft 415 kts 20°
2026-04-30 19:58 24.40697 -77.73522 16378 ft 408 kts 20°
2026-04-30 19:58 24.43293 -77.72316 15790 ft 403 kts 20°
2026-04-30 19:58 24.45856 -77.71125 15187 ft 398 kts 20°
2026-04-30 19:59 24.48395 -77.69945 14588 ft 393 kts 20°
2026-04-30 19:59 24.50915 -77.68774 14011 ft 389 kts 20°
2026-04-30 19:59 24.55850 -77.66512 12686 ft 381 kts 17°
2026-04-30 20:00 24.58406 -77.65776 11976 ft 378 kts
2026-04-30 20:00 24.60985 -77.65464 11337 ft 374 kts
2026-04-30 20:00 24.63555 -77.65546 11047 ft 361 kts 355°
2026-04-30 20:00 24.65922 -77.65708 10814 ft 320 kts 355°
2026-04-30 20:01 24.70038 -77.65961 9989 ft 286 kts 355°
2026-04-30 20:01 24.72017 -77.66081 9772 ft 280 kts 355°
2026-04-30 20:01 24.73949 -77.66198 9505 ft 276 kts 356°
2026-04-30 20:02 24.77734 -77.66423 8901 ft 272 kts 356°
2026-04-30 20:02 24.79629 -77.66536 8546 ft 273 kts 356°
2026-04-30 20:03 24.83388 -77.66757 7895 ft 272 kts 355°
2026-04-30 20:03 24.85281 -77.66868 7592 ft 270 kts 354°
2026-04-30 20:03 24.87158 -77.66979 7278 ft 270 kts 354°
2026-04-30 20:03 24.89023 -77.67089 6942 ft 271 kts 354°
2026-04-30 20:04 24.90906 -77.67201 6671 ft 270 kts 354°
2026-04-30 20:04 24.92786 -77.67311 6387 ft 270 kts 354°
2026-04-30 20:04 24.94658 -77.67421 6088 ft 269 kts 355°
2026-04-30 20:05 24.98271 -77.67631 5641 ft 240 kts 354°
2026-04-30 20:05 24.99903 -77.67727 5305 ft 234 kts 354°
2026-04-30 20:05 25.03012 -77.67910 4763 ft 211 kts 354°
2026-04-30 20:06 25.04445 -77.67994 4464 ft 202 kts 353°
2026-04-30 20:06 25.05820 -77.68075 4300 ft 192 kts 354°
2026-04-30 20:06 25.07127 -77.68153 3871 ft 186 kts 354°
2026-04-30 20:06 25.08378 -77.68227 3471 ft 179 kts 353°
2026-04-30 20:07 25.09588 -77.68298 3106 ft 173 kts 354°
2026-04-30 20:07 25.10776 -77.68369 2757 ft 168 kts 355°
2026-04-30 20:07 25.13002 -77.68038 2112 ft 155 kts 28°
2026-04-30 20:08 25.13867 -77.67379 2030 ft 150 kts 35°
2026-04-30 20:08 25.14705 -77.66699 2004 ft 148 kts 34°
2026-04-30 20:08 25.15535 -77.66048 2019 ft 149 kts 34°
2026-04-30 20:08 25.16377 -77.65367 2020 ft 151 kts 36°
2026-04-30 20:09 25.17085 -77.64531 1994 ft 149 kts 65°
2026-04-30 20:09 25.17362 -77.63448 2006 ft 147 kts 78°
2026-04-30 20:09 25.17141 -77.61295 1999 ft 144 kts 132°
2026-04-30 20:10 25.15820 -77.59512 2005 ft 152 kts 132°
2026-04-30 20:10 25.15122 -77.58679 1999 ft 142 kts 136°
2026-04-30 20:10 25.14451 -77.57910 2007 ft 141 kts 137°
2026-04-30 20:11 25.13062 -77.56353 2013 ft 142 kts 137°
2026-04-30 20:11 25.12360 -77.55572 1999 ft 145 kts 137°
2026-04-30 20:11 25.11655 -77.54783 1799 ft 143 kts 136°
2026-04-30 20:12 25.10341 -77.53316 1440 ft 128 kts 137°
2026-04-30 20:12 25.09728 -77.52631 1295 ft 129 kts 136°
2026-04-30 20:12 25.09086 -77.51917 1128 ft 132 kts 135°
2026-04-30 20:13 25.08433 -77.51188 950 ft 135 kts 134°
2026-04-30 20:13 25.07774 -77.50453 780 ft 134 kts 134°
2026-04-30 20:13 25.07123 -77.49727 629 ft 132 kts 135°
2026-04-30 20:13 25.06481 -77.49011 424 ft 132 kts 135°
2026-04-30 20:14 25.05834 -77.48287 227 ft 132 kts 136°
2026-04-30 20:14 25.05414 -77.47820 107 ft 127 kts 136°
2026-04-30 20:14 25.04807 -77.47137 24 ft 117 kts 139°
2026-04-30 20:14 25.04195 -77.46474 15 ft 65 kts 135°
2026-04-30 20:15 25.04030 -77.46288 16 ft 42 kts 134°
2026-04-30 20:15 25.03796 -77.46033 19 ft 49 kts 136°
2026-04-30 20:15 25.03612 -77.45756 17 ft 22 kts 97°
2026-04-30 20:15 25.03651 -77.45619 16 ft 4 kts
2026-04-30 20:16 25.03682 -77.45639 16 ft 14 kts 317°
2026-04-30 20:16 25.03757 -77.45726 16 ft 16 kts 312°
2026-04-30 20:16 25.03846 -77.45818 16 ft 22 kts 315°
2026-04-30 20:16 25.03956 -77.45941 17 ft 22 kts 314°
2026-04-30 20:17 25.04064 -77.46062 16 ft 22 kts 315°
2026-04-30 20:17 25.04175 -77.46185 16 ft 22 kts 314°
2026-04-30 20:17 25.04284 -77.46309 16 ft 22 kts 314°
2026-04-30 20:17 25.04393 -77.46433 16 ft 22 kts 314°
2026-04-30 20:18 25.04501 -77.46557 16 ft 22 kts 313°
2026-04-30 20:18 25.04607 -77.46680 17 ft 22 kts 315°
2026-04-30 20:18 25.04710 -77.46718 17 ft 10 kts 22°
2026-04-30 20:18 25.04783 -77.46713 16 ft 12 kts 327°
2026-04-30 20:19 25.04800 -77.46728 16 ft 0 kts 318°